Wind_Speed
33 34 31 27 30 28 28 29 31 32 32 32 34 36 38 37 34 32 33 36 34 38 44 43 33 31 33 33 34 36 35 33 33 31 25 27 33 36 36 38 37 37 36
34 33 31 28 29 27 28 29 30 31 32 33 37 38 37 39 38 31 39 34 36 39 41 33 30 33 34 35 36 34 33 31 31 34 29 30 33 34 34 36 37 35 35
26 29 29 27 25 26 29 31 33 35 37 39 39 40 37 37 35 38 37 42 40 46 33 30 32 35 37 37 35 33 34 32 31 33 35 31 35 34 33 36 37 38 35
21 22 23 24 25 29 31 34 36 36 37 39 40 39 39 37 37 38 38 45 44 29 32 33 35 35 36 36 35 32 35 35 34 39 35 34 33 33 35 36 37 38 37
22 22 25 28 30 31 34 36 38 39 35 34 31 32 33 33 36 38 36 39 35 32 35 35 36 37 38 36 34 34 34 37 40 42 41 36 36 33 34 34 38 38 37
27 29 30 31 31 33 36 37 35 34 34 33 31 31 33 32 33 35 38 36 35 35 36 37 38 38 37 36 35 35 37 40 42 44 47 45 41 39 38 37 39 39 38
27 27 28 31 33 34 33 33 34 35 36 36 35 36 34 37 36 37 36 36 36 38 38 38 39 38 37 37 39 43 43 40 42 44 46 45 43 45 43 40 38 38 37
24 27 30 32 31 31 32 33 34 34 34 34 33 33 34 33 35 33 33 34 38 38 38 40 40 41 41 41 44 45 46 48 45 44 43 42 41 45 42 39 38 37 35
27 28 28 28 29 30 30 31 31 31 31 30 30 29 29 29 31 30 33 36 38 38 38 39 41 42 42 43 45 49 49 49 48 47 44 41 40 42 39 38 37 36 35
26 26 26 27 26 27 27 28 28 28 27 26 26 27 27 27 30 31 32 35 37 39 41 42 44 46 48 49 49 49 51 48 45 47 42 42 41 40 39 37 35 35 33
23 24 24 25 25 26 26 26 26 26 26 26 26 27 28 28 32 32 32 35 39 42 45 47 48 51 54 54 54 54 53 49 46 44 42 43 47 41 35 34 32 32 30
23 23 24 24 23 24 25 26 26 26 26 27 27 27 28 29 34 36 36 36 39 44 48 51 54 56 56 56 56 55 53 49 48 45 45 46 44 51 42 40 35 30 27
24 24 24 23 23 24 24 25 25 25 26 27 28 29 30 31 34 38 38 40 44 48 52 55 55 55 53 51 49 49 48 47 44 46 44 47 46 39 42 36 34 30 28
26 24 24 24 24 24 24 24 25 25 27 29 29 30 32 34 37 39 42 45 50 54 57 56 54 49 46 44 41 38 35 37 39 42 42 40 41 43 38 35 32 34 35
27 25 25 25 25 24 23 25 27 27 28 30 31 33 34 36 39 42 47 50 54 57 57 54 50 47 44 42 39 36 28 25 30 33 47 36 42 40 37 38 30 27 28
28 27 25 25 25 24 26 26 27 29 30 30 32 34 36 39 43 46 49 52 54 53 50 48 45 44 42 40 38 36 31 27 25 29 30 33 26 31 34 38 32 28 32
29 26 26 24 24 25 26 28 32 29 29 31 33 36 37 42 45 47 50 51 51 48 45 44 43 43 42 40 37 35 30 24 22 25 23 23 33 26 34 35 29 29 26
26 25 23 23 24 26 27 28 29 31 34 37 39 38 40 42 45 47 49 49 46 43 41 42 42 41 38 37 36 33 28 24 26 19 19 25 25 25 27 25 26 24 23
21 20 22 24 26 27 28 29 31 32 34 36 38 40 43 44 46 48 48 47 44 41 40 39 38 36 34 33 34 32 27 23 25 28 21 23 23 21 25 25 22 21 21
20 21 22 25 27 29 30 31 33 34 36 38 39 42 43 45 45 46 46 45 42 40 39 37 33 31 31 33 33 29 25 23 21 24 30 25 26 25 23 24 23 22 21
17 20 24 27 30 31 32 33 35 36 38 40 42 44 44 45 45 44 43 41 39 39 38 35 31 29 30 32 33 26 22 21 19 15 14 13 19 16 16 19 23 20 21
21 25 28 30 32 33 34 35 36 38 40 42 43 44 44 44 43 42 40 38 37 37 36 35 31 29 29 31 32 24 20 19 19 19 15 16 15 16 17 19 21 23 22
27 29 31 32 34 35 36 37 39 40 42 43 44 44 44 43 42 40 38 37 36 36 35 34 32 29 28 29 29 24 21 18 18 20 20 17 14 16 16 18 18 18 20
31 32 33 35 36 37 38 39 41 42 42 43 43 43 42 42 40 38 37 36 35 34 33 33 32 30 28 27 26 23 21 19 16 17 19 17 16 15 18 19 22 21 22
35 36 37 38 40 40 41 42 42 43 43 43 42 41 41 40 38 37 36 35 34 33 32 31 30 28 26 25 24 22 20 19 17 16 20 21 19 18 18 20 20 22 23
39 40 42 42 43 42 43 43 44 44 43 42 41 40 39 38 37 35 34 33 32 31 29 29 28 27 25 23 22 21 20 18 16 16 18 22 23 21 20 20 20 20 23
Wind_Direction
247 251 261 260 263 266 272 268 277 284 286 288 287 288 293 289 290 284 300 276 295 291 308 291 299 297 300 302 299 291 287 284 287 291 281 278 281 285 294 304 310 309 307
245 242 254 258 270 267 266 275 280 285 284 284 285 287 289 289 291 282 284 282 292 298 298 296 298 299 303 307 302 291 287 287 287 292 288 281 278 282 292 300 308 309 306
242 245 255 265 267 276 279 282 285 287 287 287 286 284 284 281 269 284 280 295 288 294 290 298 300 306 305 306 299 293 288 290 285 284 285 285 288 289 294 300 309 309 306
243 246 254 267 275 278 280 282 281 283 283 282 281 280 279 279 286 277 284 300 290 294 292 296 298 298 298 302 294 279 284 289 287 286 283 283 284 289 288 299 306 307 307
246 249 259 268 270 274 280 282 285 287 285 285 283 279 280 273 280 288 297 294 289 288 289 293 295 297 300 296 286 285 286 286 285 283 283 282 283 284 282 288 296 302 302
250 257 263 267 274 281 284 287 287 287 289 290 287 282 286 285 285 282 291 288 288 287 291 296 296 298 297 289 289 286 283 281 280 279 280 281 280 284 288 292 297 301 301
254 258 267 276 282 285 286 285 286 288 288 288 286 287 285 290 286 292 289 288 290 293 297 297 297 298 298 294 291 291 289 286 282 281 277 277 275 281 286 287 291 295 298
267 275 281 285 286 286 286 287 286 286 286 287 289 290 292 291 291 289 294 294 292 297 299 301 302 300 297 293 290 287 286 287 285 281 279 278 276 278 284 285 287 292 294
281 283 284 285 287 288 289 289 288 288 289 289 290 290 290 292 297 298 291 293 298 301 301 302 302 300 299 295 292 289 288 285 284 282 282 278 274 277 280 281 286 290 293
283 285 288 290 291 293 292 288 286 285 287 288 289 291 294 294 290 291 296 299 303 303 303 303 303 302 300 296 290 285 283 284 282 281 280 279 277 278 281 281 283 286 291
283 286 290 292 291 289 287 285 283 283 285 288 292 296 298 299 296 302 302 303 305 305 305 306 305 302 300 297 293 289 285 282 276 274 272 270 274 279 282 283 281 283 288
282 288 289 287 286 286 283 282 283 287 292 297 300 300 299 299 300 301 304 305 305 306 307 306 306 304 300 296 293 291 286 280 274 270 264 264 270 275 279 286 287 287 290
288 289 288 284 283 284 285 288 291 295 298 299 299 299 298 300 300 302 304 307 308 309 310 310 307 305 302 299 295 291 287 280 270 272 270 264 263 276 274 275 275 280 286
290 288 286 286 288 288 289 290 292 295 296 298 300 300 301 302 302 306 308 310 312 312 313 313 311 310 307 305 302 298 292 281 274 263 264 266 264 266 270 272 268 275 278
294 290 286 286 287 286 286 289 292 297 298 300 301 302 304 304 306 309 312 314 315 317 317 317 317 316 312 309 304 298 295 287 271 273 262 277 266 260 261 262 267 269 275
292 288 284 284 283 284 288 290 295 299 299 300 302 303 306 307 309 311 314 316 318 319 318 318 317 315 311 308 304 298 288 276 271 268 272 261 272 275 274 276 260 256 275
288 280 279 278 281 286 291 296 300 299 298 300 303 305 308 309 310 313 316 318 320 319 318 318 318 316 313 309 304 299 292 272 260 277 267 269 266 280 277 264 256 263 268
272 274 275 278 285 289 293 296 298 301 305 307 308 309 311 311 311 314 317 319 319 318 317 319 319 318 315 312 308 300 290 276 245 256 282 268 267 263 262 251 261 264 266
266 271 278 284 288 293 297 298 300 302 304 305 306 309 311 312 313 315 317 319 319 318 319 320 320 320 318 316 314 304 292 279 253 247 253 260 261 256 237 248 258 254 259
259 271 284 290 295 297 298 299 302 303 304 305 307 309 311 311 312 315 316 317 317 318 319 320 320 320 317 318 318 306 294 276 275 258 246 259 271 249 235 236 255 257 259
275 287 289 293 295 297 298 300 302 304 305 307 308 308 310 310 312 313 314 314 315 317 317 318 316 318 318 320 320 306 295 280 271 247 231 271 260 224 238 249 247 249 255
285 286 288 291 292 294 297 300 303 305 307 307 306 307 308 309 311 311 312 312 313 314 313 313 313 313 315 320 321 304 296 286 252 250 246 238 265 236 243 240 237 245 247
286 287 288 290 292 295 298 301 304 305 305 305 305 306 307 308 309 309 310 310 311 311 311 308 306 306 309 315 319 303 301 290 255 249 231 225 228 236 236 238 244 241 240
285 287 289 291 294 297 300 302 303 302 303 303 304 305 305 306 308 308 307 308 310 311 310 309 304 301 302 308 314 302 296 290 279 250 230 223 219 223 232 237 235 240 242
288 289 290 293 295 298 300 300 300 300 301 302 302 303 304 305 305 305 305 307 309 310 309 309 305 302 299 299 305 298 293 287 281 259 231 225 226 232 241 237 239 240 235
293 293 294 296 297 298 299 299 299 299 300 300 301 301 302 303 302 301 303 306 309 310 307 306 306 304 302 294 296 292 288 285 269 263 244 230 228 232 236 236 239 237 223
Height
3102 3102 3102 3104 3104 3106 3107 3106 3104 3102 3100 3098 3097 3095 3093 3092 3089 3087 3084 3081 3079 3077 3074 3071 3068 3066 3063 3060 3056 3052 3048 3045 3041 3039 3038 3035 3030 3025 3020 3013 3010 3005 3001
3096 3097 3097 3099 3100 3100 3100 3099 3098 3096 3094 3092 3090 3087 3085 3084 3082 3078 3075 3074 3070 3069 3066 3063 3060 3058 3054 3050 3047 3044 3040 3036 3033 3030 3029 3026 3022 3017 3012 3006 3002 2998 2993
3091 3092 3092 3093 3094 3093 3093 3092 3091 3089 3087 3085 3082 3079 3078 3076 3072 3071 3069 3066 3064 3060 3056 3054 3051 3048 3045 3042 3038 3033 3030 3029 3026 3022 3019 3017 3013 3008 3004 2998 2993 2989 2985
3086 3087 3088 3088 3089 3088 3086 3085 3083 3081 3079 3076 3073 3071 3069 3068 3065 3063 3061 3057 3055 3052 3048 3045 3042 3040 3037 3033 3029 3026 3023 3021 3018 3015 3011 3008 3005 3001 2996 2990 2986 2981 2977
3082 3084 3082 3083 3083 3080 3078 3076 3074 3072 3070 3067 3065 3064 3061 3059 3057 3056 3051 3050 3045 3042 3039 3036 3033 3030 3027 3025 3022 3019 3017 3013 3010 3005 3002 2999 2996 2993 2989 2984 2978 2975 2971
3077 3077 3076 3076 3075 3073 3070 3068 3065 3063 3060 3058 3057 3054 3053 3051 3049 3046 3043 3038 3035 3032 3029 3027 3024 3021 3017 3015 3013 3010 3008 3003 3000 2997 2992 2990 2986 2983 2979 2974 2970 2967 2963
3071 3070 3070 3069 3067 3065 3062 3060 3058 3055 3052 3050 3048 3046 3044 3042 3040 3036 3033 3028 3025 3023 3021 3018 3014 3011 3007 3004 3001 2997 2994 2992 2988 2985 2980 2979 2977 2974 2970 2966 2962 2958 2955
3064 3064 3062 3060 3058 3056 3054 3052 3049 3047 3045 3042 3040 3037 3034 3032 3029 3027 3023 3019 3017 3015 3012 3008 3004 3001 2998 2994 2990 2986 2982 2977 2976 2972 2968 2967 2965 2963 2960 2957 2953 2950 2947
3057 3055 3054 3052 3050 3048 3045 3043 3041 3039 3036 3034 3032 3029 3027 3025 3021 3017 3015 3012 3009 3006 3003 3000 2996 2991 2988 2984 2978 2972 2968 2964 2960 2958 2957 2954 2953 2952 2950 2947 2944 2941 2938
3049 3047 3046 3044 3042 3040 3038 3035 3033 3031 3029 3027 3025 3022 3019 3017 3013 3011 3008 3004 3000 2996 2993 2990 2985 2980 2975 2970 2964 2958 2952 2951 2948 2943 2943 2941 2941 2940 2939 2937 2935 2932 2930
3042 3041 3039 3037 3035 3032 3030 3028 3026 3025 3022 3020 3018 3015 3011 3008 3003 3001 2999 2995 2990 2986 2982 2977 2973 2967 2960 2954 2949 2942 2938 2937 2935 2932 2930 2928 2927 2929 2929 2928 2927 2924 2923
3035 3034 3031 3029 3027 3025 3023 3021 3019 3017 3014 3011 3009 3006 3003 3000 2994 2991 2990 2987 2981 2975 2971 2964 2957 2951 2944 2936 2929 2924 2921 2920 2918 2919 2919 2918 2918 2915 2916 2916 2915 2915 2914
3027 3025 3023 3021 3019 3017 3015 3012 3010 3007 3005 3002 2999 2997 2994 2991 2987 2983 2980 2976 2971 2964 2958 2950 2942 2935 2926 2919 2913 2908 2904 2901 2902 2902 2904 2905 2906 2908 2908 2907 2907 2907 2906
3018 3016 3014 3012 3010 3008 3005 3003 3001 3000 2997 2994 2992 2988 2985 2982 2976 2973 2968 2964 2957 2950 2942 2934 2925 2918 2911 2905 2899 2895 2890 2888 2887 2888 2889 2892 2895 2897 2897 2898 2898 2899 2899
3009 3007 3005 3002 3000 2999 2998 2996 2993 2993 2989 2986 2983 2979 2976 2972 2967 2961 2956 2949 2942 2934 2924 2916 2909 2903 2897 2891 2887 2884 2881 2878 2877 2876 2877 2879 2882 2884 2885 2887 2889 2890 2890
2999 2997 2995 2994 2992 2990 2989 2988 2986 2983 2981 2978 2975 2971 2966 2961 2956 2950 2944 2936 2928 2920 2911 2904 2898 2893 2887 2881 2876 2872 2870 2869 2867 2867 2866 2869 2872 2873 2875 2877 2879 2881 2882
2990 2988 2987 2985 2983 2982 2981 2979 2975 2975 2973 2969 2966 2960 2957 2951 2945 2939 2932 2924 2915 2908 2901 2894 2888 2882 2876 2870 2865 2861 2858 2859 2859 2858 2858 2860 2862 2864 2866 2869 2871 2873 2874
2981 2980 2979 2978 2977 2975 2973 2971 2968 2965 2961 2956 2952 2950 2946 2941 2935 2929 2921 2912 2905 2897 2891 2884 2878 2872 2866 2860 2855 2851 2849 2848 2849 2851 2852 2852 2854 2855 2858 2861 2864 2866 2867
2973 2973 2972 2971 2970 2967 2964 2962 2959 2956 2952 2948 2944 2938 2934 2929 2923 2916 2910 2901 2894 2888 2882 2876 2870 2864 2858 2853 2848 2843 2840 2840 2840 2841 2843 2846 2847 2848 2851 2855 2857 2859 2861
2965 2965 2964 2964 2962 2959 2956 2953 2949 2946 2942 2937 2933 2927 2922 2917 2911 2905 2898 2891 2885 2878 2872 2867 2862 2857 2851 2846 2841 2836 2834 2833 2833 2833 2836 2839 2840 2841 2844 2848 2850 2853 2855
2958 2958 2957 2956 2954 2951 2947 2944 2940 2936 2932 2926 2922 2917 2912 2905 2899 2893 2887 2881 2875 2869 2864 2859 2855 2850 2845 2840 2835 2831 2828 2827 2827 2828 2830 2833 2834 2835 2838 2842 2844 2847 2849
2952 2951 2949 2947 2944 2942 2938 2934 2930 2925 2920 2916 2911 2906 2900 2894 2888 2882 2877 2871 2866 2860 2855 2851 2847 2843 2839 2834 2828 2824 2822 2821 2821 2822 2824 2826 2828 2830 2833 2835 2838 2841 2844
2944 2941 2939 2937 2934 2931 2927 2923 2918 2914 2909 2905 2900 2895 2889 2883 2877 2872 2866 2861 2857 2852 2847 2842 2839 2836 2832 2828 2823 2818 2816 2815 2815 2816 2818 2820 2821 2825 2828 2831 2833 2836 2839
2935 2932 2930 2927 2924 2920 2916 2911 2907 2903 2899 2893 2888 2883 2877 2872 2867 2861 2856 2852 2847 2843 2838 2834 2830 2827 2824 2821 2817 2814 2812 2810 2809 2810 2812 2814 2817 2820 2823 2825 2828 2831 2834
2925 2923 2920 2916 2912 2909 2905 2900 2896 2891 2886 2881 2877 2872 2866 2861 2856 2851 2847 2843 2838 2834 2830 2825 2821 2818 2816 2814 2811 2808 2807 2805 2804 2804 2806 2809 2811 2814 2817 2820 2823 2826 2829
2916 2913 2909 2905 2901 2897 2893 2888 2884 2879 2874 2869 2865 2860 2855 2851 2846 2842 2838 2834 2829 2825 2821 2818 2814 2810 2808 2806 2804 2802 2801 2800 2799 2799 2800 2803 2806 2808 2811 2814 2817 2820 2823